Barbarossa — IBJD — position and weather

sailwx.info

Track history (hours):
 
Tides and Currents Weather Stations Pressure Air Temp Water Temp Dewpoint Dewpoint Depression Visibility Wind Speed Wind Dir Waves Ship Positions

Barbarossa

Last reported at 2017-Jul-21 22:49 UTC. Time now 2017-Jul-22 18:30 UTC.
Position N 41°06' E 018°35'.

Length 294 m; draft 8.1 m.

Type: Passenger vessel. MMSI: 247282900.

Date/timePositionNaut miles runAvg speedWind from/ knotsBaromVisibWave heightAir tempDewpointWater temp
2017-Jul-21 22:49N 41°06' E 018°35'1016.2
2017-Jul-21 22:12N 40°56' E 018°38'416.3
2017-Jul-21 21:57N 40°53' E 018°39'716.0
2017-Jul-21 21:30N 40°45' E 018°42'815.8
2017-Jul-21 21:00N 40°38' E 018°44'815.6
2017-Jul-21 20:30N 40°30' E 018°47'815.5
2017-Jul-21 19:59N 40°23' E 018°50'815.5
2017-Jul-21 19:29N 40°15' E 018°53'10615.3
2017-Jul-21 12:36N 38°39' E 019°50'216.1
2017-Jul-21 12:30N 38°38' E 019°51'2715.7
2017-Jul-21 10:46N 38°13' E 020°07'23212.6
2017-Jul-20 16:20N 37°12' E 024°49'515.1
2017-Jul-20 16:00N 37°14' E 024°55'815.7
2017-Jul-20 15:30N 37°18' E 025°04'816.7
2017-Jul-20 15:00N 37°25' E 025°07'10 9.8
2017-Jul-20 14:00N 37°28' E 025°19'0 0.0
2017-Jul-20 13:28N 37°28' E 025°19'0 0.0
2017-Jul-20 12:58N 37°28' E 025°19'0 0.0
2017-Jul-20 12:28N 37°28' E 025°19'0 0.0
2017-Jul-20 11:55N 37°28' E 025°19'0 0.0
2017-Jul-20 11:28N 37°28' E 025°19'0 0.0
2017-Jul-20 10:59N 37°28' E 025°19'0 0.0
2017-Jul-20 10:28N 37°28' E 025°19'0 0.0
2017-Jul-20 09:59N 37°28' E 025°19'0 0.0
2017-Jul-20 09:29N 37°28' E 025°19'0 0.0
2017-Jul-20 08:58N 37°28' E 025°19'0 0.0
2017-Jul-20 08:28N 37°28' E 025°19'0 0.0
2017-Jul-20 07:58N 37°28' E 025°19'0 0.0
2017-Jul-20 07:05N 37°28' E 025°19'0 0.0
2017-Jul-20 06:58N 37°28' E 025°19'0 0.0
2017-Jul-20 06:28N 37°28' E 025°19'0 0.0
2017-Jul-20 05:58N 37°28' E 025°19'0 0.0
2017-Jul-20 05:29N 37°28' E 025°19'0 0.0
2017-Jul-20 04:58N 37°28' E 025°19'0 0.0
2017-Jul-20 04:28N 37°28' E 025°19'0 0.0
2017-Jul-20 03:58N 37°28' E 025°19'0 0.0
2017-Jul-20 03:31N 37°28' E 025°19'0 0.1
2017-Jul-20 03:01N 37°28' E 025°19'1 1.4
2017-Jul-20 02:30N 37°28' E 025°18'611.5
2017-Jul-20 02:01N 37°27' E 025°11'510.7
2017-Jul-20 01:30N 37°24' E 025°07'713.5
2017-Jul-20 01:00N 37°18' E 025°02'714.4
2017-Jul-20 00:31N 37°15' E 024°54'  
2017-Jul-16 22:44N 44°09' E 013°18'620.1
2017-Jul-16 22:26N 44°13' E 013°12'920.0
2017-Jul-16 22:00N 44°21' E 013°08'1019.1
2017-Jul-16 21:30N 44°30' E 013°04'1019.3
2017-Jul-16 21:00N 44°40' E 012°60'919.1
2017-Jul-16 20:30N 44°49' E 012°55'1019.2
2017-Jul-16 20:00N 44°57' E 012°48'1019.5
2017-Jul-16 19:30N 45°06' E 012°42'918.8
2017-Jul-16 19:01N 45°11' E 012°31'816.8
2017-Jul-16 18:30N 45°18' E 012°24'510.6
2017-Jul-16 18:00N 45°20' E 012°18'3 6.9
2017-Jul-16 17:30N 45°24' E 012°16'3 6.3
2017-Jul-16 17:00N 45°27' E 012°16'0 0.8
2017-Jul-16 16:30N 45°27' E 012°15'0 0.8
2017-Jul-16 16:00N 45°27' E 012°15'0 0.0
2017-Jul-16 15:30N 45°27' E 012°15'0 0.0
2017-Jul-16 15:00N 45°27' E 012°15'0 0.0
2017-Jul-16 14:30N 45°27' E 012°15'0 0.0
2017-Jul-16 14:00N 45°27' E 012°15'0 0.0
2017-Jul-16 13:30N 45°27' E 012°15'0 0.0
2017-Jul-16 13:00N 45°27' E 012°15'0 0.0
2017-Jul-16 12:30N 45°27' E 012°15'0 0.0
2017-Jul-16 11:58N 45°27' E 012°15'0 0.0
2017-Jul-16 11:30N 45°27' E 012°15'0 0.0
2017-Jul-16 11:00N 45°27' E 012°15'0 0.0
2017-Jul-16 10:30N 45°27' E 012°15'0 0.0
2017-Jul-16 10:00N 45°27' E 012°15'0 0.0
2017-Jul-16 09:27N 45°27' E 012°15'0 0.0
2017-Jul-16 09:00N 45°27' E 012°15'0 0.0
2017-Jul-16 08:30N 45°27' E 012°15'0 0.0
2017-Jul-16 08:00N 45°27' E 012°15'0 0.0
2017-Jul-16 07:30N 45°27' E 012°15'0 0.0
2017-Jul-16 07:00N 45°27' E 012°15'0 0.0
2017-Jul-16 06:30N 45°27' E 012°15'0 1.0
2017-Jul-16 06:00N 45°27' E 012°15'1 1.4
2017-Jul-16 05:30N 45°26' E 012°16'4 7.3
2017-Jul-16 05:00N 45°23' E 012°15'4 7.9
2017-Jul-16 04:30N 45°20' E 012°20'4 8.5
2017-Jul-16 04:00N 45°19' E 012°26'714.5
2017-Jul-16 03:30N 45°15' E 012°35'1121.4
2017-Jul-16 03:00N 45°09' E 012°46'1121.3
2017-Jul-16 02:30N 44°59' E 012°53'1121.6
2017-Jul-16 02:00N 44°49' E 012°59'1121.9
2017-Jul-16 01:30N 44°39' E 013°05'1122.0
2017-Jul-16 01:00N 44°29' E 013°10'1122.1
2017-Jul-16 00:30N 44°18' E 013°16'  
2017-Jul-13 16:20N 37°12' E 024°50'516.0
2017-Jul-13 16:00N 37°14' E 024°56'816.4
2017-Jul-13 15:30N 37°18' E 025°05'815.6
2017-Jul-13 15:00N 37°25' E 025°07'713.9
2017-Jul-13 14:30N 37°28' E 025°15'3 5.8
2017-Jul-13 14:00N 37°28' E 025°19'0 0.0
2017-Jul-13 13:30N 37°28' E 025°19'0 0.0
2017-Jul-13 12:59N 37°28' E 025°19'0 0.0
2017-Jul-13 12:29N 37°28' E 025°19'0 0.0
2017-Jul-13 11:59N 37°28' E 025°19'0 0.0
2017-Jul-13 11:29N 37°28' E 025°19'0 0.0
2017-Jul-13 10:59N 37°28' E 025°19'0 0.0
2017-Jul-13 10:29N 37°28' E 025°19'0 0.0
2017-Jul-13 09:59N 37°28' E 025°19'0 0.0
2017-Jul-13 09:29N 37°28' E 025°19'0 0.0
2017-Jul-13 08:59N 37°28' E 025°19'0 0.0
2017-Jul-13 08:29N 37°28' E 025°19'0 0.0
2017-Jul-13 07:59N 37°28' E 025°19'0 0.0
2017-Jul-13 07:29N 37°28' E 025°19'0 0.0
2017-Jul-13 06:59N 37°28' E 025°19'0 0.0
2017-Jul-13 06:29N 37°28' E 025°19'0 0.0
2017-Jul-13 05:59N 37°28' E 025°19'0 0.0
2017-Jul-13 05:29N 37°28' E 025°19'0 0.0
2017-Jul-13 04:59N 37°28' E 025°19'0 0.0
2017-Jul-13 04:29N 37°28' E 025°19'0 0.1
2017-Jul-13 04:00N 37°28' E 025°19'2 4.1
2017-Jul-13 03:30N 37°27' E 025°17'510.3
2017-Jul-13 03:00N 37°28' E 025°10'5 9.7
2017-Jul-13 02:30N 37°23' E 025°07'610.8
2017-Jul-13 01:57N 37°18' E 025°04'511.7
2017-Jul-13 01:30N 37°15' E 024°58'611.6
2017-Jul-13 01:00N 37°14' E 024°51'  
Track history (hours):
 
Tides and Currents Weather Stations Pressure Air Temp Water Temp Dewpoint Dewpoint Depression Visibility Wind Speed Wind Dir Waves Ship Positions

Barbarossa

Last reported at 2017-Jul-21 22:49 UTC. Time now 2017-Jul-22 18:30 UTC.
Position N 41°06' E 018°35'.

Length 294 m; draft 8.1 m.

Type: Passenger vessel. MMSI: 247282900.

Date/timePositionNaut miles runAvg speedWind from/ knotsBaromVisibWave heightAir tempDewpointWater temp
2017-Jul-21 22:49N 41°06' E 018°35'1016.2
2017-Jul-21 22:12N 40°56' E 018°38'416.3
2017-Jul-21 21:57N 40°53' E 018°39'716.0
2017-Jul-21 21:30N 40°45' E 018°42'815.8
2017-Jul-21 21:00N 40°38' E 018°44'815.6
2017-Jul-21 20:30N 40°30' E 018°47'815.5
2017-Jul-21 19:59N 40°23' E 018°50'815.5
2017-Jul-21 19:29N 40°15' E 018°53'10615.3
2017-Jul-21 12:36N 38°39' E 019°50'216.1
2017-Jul-21 12:30N 38°38' E 019°51'2715.7
2017-Jul-21 10:46N 38°13' E 020°07'23212.6
2017-Jul-20 16:20N 37°12' E 024°49'515.1
2017-Jul-20 16:00N 37°14' E 024°55'815.7
2017-Jul-20 15:30N 37°18' E 025°04'816.7
2017-Jul-20 15:00N 37°25' E 025°07'10 9.8
2017-Jul-20 14:00N 37°28' E 025°19'0 0.0
2017-Jul-20 13:28N 37°28' E 025°19'0 0.0
2017-Jul-20 12:58N 37°28' E 025°19'0 0.0
2017-Jul-20 12:28N 37°28' E 025°19'0 0.0
2017-Jul-20 11:55N 37°28' E 025°19'0 0.0
2017-Jul-20 11:28N 37°28' E 025°19'0 0.0
2017-Jul-20 10:59N 37°28' E 025°19'0 0.0
2017-Jul-20 10:28N 37°28' E 025°19'0 0.0
2017-Jul-20 09:59N 37°28' E 025°19'0 0.0
2017-Jul-20 09:29N 37°28' E 025°19'0 0.0
2017-Jul-20 08:58N 37°28' E 025°19'0 0.0
2017-Jul-20 08:28N 37°28' E 025°19'0 0.0
2017-Jul-20 07:58N 37°28' E 025°19'0 0.0
2017-Jul-20 07:05N 37°28' E 025°19'0 0.0
2017-Jul-20 06:58N 37°28' E 025°19'0 0.0
2017-Jul-20 06:28N 37°28' E 025°19'0 0.0
2017-Jul-20 05:58N 37°28' E 025°19'0 0.0
2017-Jul-20 05:29N 37°28' E 025°19'0 0.0
2017-Jul-20 04:58N 37°28' E 025°19'0 0.0
2017-Jul-20 04:28N 37°28' E 025°19'0 0.0
2017-Jul-20 03:58N 37°28' E 025°19'0 0.0
2017-Jul-20 03:31N 37°28' E 025°19'0 0.1
2017-Jul-20 03:01N 37°28' E 025°19'1 1.4
2017-Jul-20 02:30N 37°28' E 025°18'611.5
2017-Jul-20 02:01N 37°27' E 025°11'510.7
2017-Jul-20 01:30N 37°24' E 025°07'713.5
2017-Jul-20 01:00N 37°18' E 025°02'714.4
2017-Jul-20 00:31N 37°15' E 024°54'  
2017-Jul-16 22:44N 44°09' E 013°18'620.1
2017-Jul-16 22:26N 44°13' E 013°12'920.0
2017-Jul-16 22:00N 44°21' E 013°08'1019.1
2017-Jul-16 21:30N 44°30' E 013°04'1019.3
2017-Jul-16 21:00N 44°40' E 012°60'919.1
2017-Jul-16 20:30N 44°49' E 012°55'1019.2
2017-Jul-16 20:00N 44°57' E 012°48'1019.5
2017-Jul-16 19:30N 45°06' E 012°42'918.8
2017-Jul-16 19:01N 45°11' E 012°31'816.8
2017-Jul-16 18:30N 45°18' E 012°24'510.6
2017-Jul-16 18:00N 45°20' E 012°18'3 6.9
2017-Jul-16 17:30N 45°24' E 012°16'3 6.3
2017-Jul-16 17:00N 45°27' E 012°16'0 0.8
2017-Jul-16 16:30N 45°27' E 012°15'0 0.8
2017-Jul-16 16:00N 45°27' E 012°15'0 0.0
2017-Jul-16 15:30N 45°27' E 012°15'0 0.0
2017-Jul-16 15:00N 45°27' E 012°15'0 0.0
2017-Jul-16 14:30N 45°27' E 012°15'0 0.0
2017-Jul-16 14:00N 45°27' E 012°15'0 0.0
2017-Jul-16 13:30N 45°27' E 012°15'0 0.0
2017-Jul-16 13:00N 45°27' E 012°15'0 0.0
2017-Jul-16 12:30N 45°27' E 012°15'0 0.0
2017-Jul-16 11:58N 45°27' E 012°15'0 0.0
2017-Jul-16 11:30N 45°27' E 012°15'0 0.0
2017-Jul-16 11:00N 45°27' E 012°15'0 0.0
2017-Jul-16 10:30N 45°27' E 012°15'0 0.0
2017-Jul-16 10:00N 45°27' E 012°15'0 0.0
2017-Jul-16 09:27N 45°27' E 012°15'0 0.0
2017-Jul-16 09:00N 45°27' E 012°15'0 0.0
2017-Jul-16 08:30N 45°27' E 012°15'0 0.0
2017-Jul-16 08:00N 45°27' E 012°15'0 0.0
2017-Jul-16 07:30N 45°27' E 012°15'0 0.0
2017-Jul-16 07:00N 45°27' E 012°15'0 0.0
2017-Jul-16 06:30N 45°27' E 012°15'0 1.0
2017-Jul-16 06:00N 45°27' E 012°15'1 1.4
2017-Jul-16 05:30N 45°26' E 012°16'4 7.3
2017-Jul-16 05:00N 45°23' E 012°15'4 7.9
2017-Jul-16 04:30N 45°20' E 012°20'4 8.5
2017-Jul-16 04:00N 45°19' E 012°26'714.5
2017-Jul-16 03:30N 45°15' E 012°35'1121.4
2017-Jul-16 03:00N 45°09' E 012°46'1121.3
2017-Jul-16 02:30N 44°59' E 012°53'1121.6
2017-Jul-16 02:00N 44°49' E 012°59'1121.9
2017-Jul-16 01:30N 44°39' E 013°05'1122.0
2017-Jul-16 01:00N 44°29' E 013°10'1122.1
2017-Jul-16 00:30N 44°18' E 013°16'  
2017-Jul-13 16:20N 37°12' E 024°50'516.0
2017-Jul-13 16:00N 37°14' E 024°56'816.4
2017-Jul-13 15:30N 37°18' E 025°05'815.6
2017-Jul-13 15:00N 37°25' E 025°07'713.9
2017-Jul-13 14:30N 37°28' E 025°15'3 5.8
2017-Jul-13 14:00N 37°28' E 025°19'0 0.0
2017-Jul-13 13:30N 37°28' E 025°19'0 0.0
2017-Jul-13 12:59N 37°28' E 025°19'0 0.0
2017-Jul-13 12:29N 37°28' E 025°19'0 0.0
2017-Jul-13 11:59N 37°28' E 025°19'0 0.0
2017-Jul-13 11:29N 37°28' E 025°19'0 0.0
2017-Jul-13 10:59N 37°28' E 025°19'0 0.0
2017-Jul-13 10:29N 37°28' E 025°19'0 0.0
2017-Jul-13 09:59N 37°28' E 025°19'0 0.0
2017-Jul-13 09:29N 37°28' E 025°19'0 0.0
2017-Jul-13 08:59N 37°28' E 025°19'0 0.0
2017-Jul-13 08:29N 37°28' E 025°19'0 0.0
2017-Jul-13 07:59N 37°28' E 025°19'0 0.0
2017-Jul-13 07:29N 37°28' E 025°19'0 0.0
2017-Jul-13 06:59N 37°28' E 025°19'0 0.0
2017-Jul-13 06:29N 37°28' E 025°19'0 0.0
2017-Jul-13 05:59N 37°28' E 025°19'0 0.0
2017-Jul-13 05:29N 37°28' E 025°19'0 0.0
2017-Jul-13 04:59N 37°28' E 025°19'0 0.0
2017-Jul-13 04:29N 37°28' E 025°19'0 0.1
2017-Jul-13 04:00N 37°28' E 025°19'2 4.1
2017-Jul-13 03:30N 37°27' E 025°17'510.3
2017-Jul-13 03:00N 37°28' E 025°10'5 9.7
2017-Jul-13 02:30N 37°23' E 025°07'610.8
2017-Jul-13 01:57N 37°18' E 025°04'511.7
2017-Jul-13 01:30N 37°15' E 024°58'611.6
2017-Jul-13 01:00N 37°14' E 024°51'  

Dump ship's entire track history